sat.trackr.live / text

‹ back to catalog

STARLINK-34551

NORAD 64682 · 2025-139U

PAYLOAD ACTIVE UNKNOWN

§ Identity

Operator
Country
US
Launch date
2025-06-28
Launch site
AFETR
Launch vehicle
Mass (kg)
RCS (m²)

Purposes: comms

External: N2YO · Heavens-Above · Gunter

§ Orbital elements

Epoch: 2026-05-25T02:56:56.126112Z

Period
94.10 min
Inclination
53.1583°
Eccentricity
0.0000912
Mean motion
15.30221628 rev/d
Perigee alt
474.5 km
Apogee alt
475.8 km
Semi-major
6,853.3 km
B*
1.4756e-3
RAAN
121.5557°
Arg perigee
54.2399°
Mean anomaly
305.8687°
Rev number
5,213

§ Raw data

STARLINK-345511 64682U 25139U   26145.12287183  .00043630  00000+0  14756-2 0  99962 64682  53.1583 121.5557 0000912  54.2399 305.8687 15.30221628 52131

JSON: /api/v1/satellites/64682 · /tle

For live sub-satellite position, see the globe view (requires WebGL).

§ Visibility from observer

Set your observer location to see the next 7 days of passes ≥ 10°. The values pass through the URL so the page stays shareable.

No JS? Fill the form by hand. The geolocation button needs JavaScript.